FENGYUN 1C DEB

Satellite information

Favourite Embed

Satellite Type and Status

DEBRISIN ORBIT

Key statistics

Satellite FENGYUN 1C DEB at a glance.

Uptime

9609

Days in orbit

Revolutions

≈ 14.2

Per day

Orbit

SSO

Sun Synchronous Orbit

Inclination

96.7

Latest

Satellite identification and parameters

Extended collection of information and parameters for FENGYUN 1C DEB.

Object identification

Identified? True

Debris? True

Object name: FENGYUN 1C DEB

International designator: 1999-025DAM

Object number (NORAD): 32425

Object ID (CCSDS): 32425

Country: PEOPLES REPUBLIC OF CHINA (PRC)

Current information (Y/N): Y

RCS size: SMALL

Orbital parameters

Period: 101.675 minutes

Inclination: 96.6949 deg

SMA: 7216.097 km

Apoapsis: 1006.077 km

Periapsis: 669.846 km

RAAN: 55.4422 deg

Eccentricy: 0.02329733

Argument of periapsis: 257.643 deg

Mean anomaly: 99.8585 deg

Mean motion: 14.16280425 rev/day

Mean motion (dot): 0.00001329 rev/day2

B* drag term: 0.00052664384 1/REarth

Two-line elements (TLE)

Creation date: Aug. 29, 2025, 9:54 a.m.

Reference frame: TEME

Reference center: EARTH

Epoch: Aug. 29, 2025, 5:10 a.m. UTC

TLE line 0: 0 FENGYUN 1C DEB

TLE line 1: 1 32425U 99025DAM 25241.21545437 .00001329 00000-0 52664-3 0 9997

TLE line 2: 2 32425 96.6949 55.4422 0232973 257.6430 99.8585 14.16280425680412

Live tracking on map

Real-time ground track for satellite FENGYUN 1C DEB.

In-orbit conjunctions

A list of the most updated potential collisions computed for object FENGYUN 1C DEB.

Target Orbit TCA Probability of collision Miss distance Type
KITSAT B SSO 2024-12-29 23:26:33 0.0001629037 333.0 (m) PAYLOAD
CZ-6A DEB SSO 2024-11-09 02:12:41 0.0009023448 57.0 (m) DEBRIS
COSMOS 1275 DEB LEO 2024-10-17 16:25:57 0.0001528328 119.0 (m) DEBRIS
CZ-6A DEB LEO 2024-10-07 05:58:07 0.0003239082 128.0 (m) DEBRIS
COSMOS 1934 LEO 2024-08-19 10:11:13 0.0001016388 880.0 (m) PAYLOAD

Associated space launch

Chinese polar orbiting meteorological satellite

FENGYUN 1C DEB was lifted into orbit during the mission ‘Long March 4B | Feng Yun 1C’, on board a Long March 4B space rocket.

The launch took place on May 10, 1999, 1:33 a.m. from Launch Complex 7.

For more information about the launch, click the button.

Launch to space Long March 4B | Feng Yun 1C
Long March 4B | Feng Yun 1C

Agency: N/A

Status: Launch Successful

Launch date: May 10, 1999, 1:33 a.m. UTC

Rocket: Long March 4B

Launch pad: Launch Complex 7

Location: Taiyuan Satellite Launch Center, People's Republic of China

...

Latest news about this satellite

There are no fresh news available about this satellite. Check back as we update our databases every day.


Newsletter sign-up

Weekly statistics, charts and insights to help you stay on top of the space industry.